THORAD AGENA D DEB

基本信息
目录编号:
19423
目录名称:
THORAD AGENA D DEB
国际标识:
1970-025QB
轨道中心:
EARTH
物体状态:
已陨落(2023-10-17)
发射日期:
1970-04-08 UTC
轨道信息
数据来源: 国际轨道数据
星历时间: 2023-10-13T06:35:02+0800
半长轴: 6701.771km
偏心率: 0.0029856
轨道倾角: 99.733°
近地点辐角: 155.226°
升交点赤经: 237.931°
平近点角: 205.044°
近地点: 303.627km
远地点: 343.645km
周期: 91.001分钟
每日圈数: 15.824079
详细信息
发射场:
AFWTR
轨道高度:
LEO
数据来源:
AOE Integration Group
参考系:
TEME
时间系统:
UTC
历元类型:
SGP4
2D轨道图
3D轨道图
轨道高度分析图
轨道倾角分析图
轨道综合分析图
查看轨道综合分析图